Private Wetterstation Sandau
Wetterdaten: Freitag, 24.02.2012
Datum Zeit Temp. A. Feuchte A. Luftdruck Regen Wind Richtung Richtung Taupunkt Windchill
24.02.2012 00:02 9,3 C 92 % 1017,8 hPa 0,5 l/m 15,5 km/h (3 Bft) W-SW 247 8,1 C 7,0 C
24.02.2012 00:07 9,3 C 92 % 1017,8 hPa 0,0 l/m 11,5 km/h (2 Bft) W 270 8,1 C 7,5 C
24.02.2012 00:12 9,4 C 92 % 1017,9 hPa 0,0 l/m 27,0 km/h (4 Bft) W-SW 247 8,2 C 6,0 C
24.02.2012 00:17 9,4 C 92 % 1018,0 hPa 0,0 l/m 21,6 km/h (4 Bft) SW 225 8,2 C 6,5 C
24.02.2012 00:22 9,5 C 92 % 1018,0 hPa 0,0 l/m 13,0 km/h (3 Bft) W-SW 247 8,3 C 7,6 C
24.02.2012 00:27 9,5 C 92 % 1017,8 hPa 0,0 l/m 8,3 km/h (2 Bft) W-SW 247 8,3 C 8,4 C
24.02.2012 00:32 9,5 C 92 % 1017,8 hPa 0,0 l/m 26,6 km/h (4 Bft) W 270 8,3 C 6,2 C
24.02.2012 00:37 9,5 C 92 % 1017,8 hPa 0,0 l/m 14,4 km/h (3 Bft) W-SW 247 8,3 C 7,4 C
24.02.2012 00:42 9,5 C 92 % 1017,9 hPa 0,0 l/m 14,4 km/h (3 Bft) W-SW 247 8,3 C 7,4 C
24.02.2012 00:47 9,6 C 92 % 1017,9 hPa 0,0 l/m 8,6 km/h (2 Bft) W 270 8,4 C 8,4 C
24.02.2012 00:52 9,6 C 92 % 1018,1 hPa 0,0 l/m 8,3 km/h (2 Bft) W 270 8,4 C 8,5 C
24.02.2012 00:57 9,6 C 92 % 1017,8 hPa 0,0 l/m 16,9 km/h (3 Bft) W-NW 292 8,4 C 7,2 C
24.02.2012 01:02 9,6 C 92 % 1017,9 hPa 0,0 l/m 10,1 km/h (2 Bft) W-SW 247 8,4 C 8,1 C
24.02.2012 01:07 9,6 C 92 % 1017,9 hPa 0,0 l/m 10,1 km/h (2 Bft) W-SW 247 8,4 C 8,1 C
24.02.2012 01:12 9,6 C 92 % 1017,8 hPa 0,0 l/m 9,0 km/h (2 Bft) W 270 8,4 C 8,3 C
24.02.2012 01:17 9,6 C 92 % 1017,8 hPa 0,0 l/m 11,2 km/h (2 Bft) W 270 8,4 C 8,0 C
24.02.2012 01:22 9,6 C 92 % 1017,8 hPa 0,0 l/m 16,6 km/h (3 Bft) W 270 8,4 C 7,2 C
24.02.2012 01:27 9,6 C 92 % 1017,8 hPa 0,0 l/m 16,6 km/h (3 Bft) W-SW 247 8,4 C 7,2 C
24.02.2012 01:32 9,6 C 92 % 1017,6 hPa 0,0 l/m 13,0 km/h (3 Bft) W-SW 247 8,4 C 7,7 C
24.02.2012 01:37 9,6 C 92 % 1017,8 hPa 0,0 l/m 9,4 km/h (2 Bft) W-SW 247 8,4 C 8,3 C
24.02.2012 01:42 9,6 C 92 % 1017,9 hPa 0,0 l/m 4,3 km/h (1 Bft) SW 225 8,4 C 9,6 C
24.02.2012 01:47 9,6 C 92 % 1017,9 hPa 0,0 l/m 8,3 km/h (2 Bft) W-SW 247 8,4 C 8,5 C
24.02.2012 01:52 9,6 C 92 % 1017,9 hPa 0,0 l/m 7,9 km/h (2 Bft) W-SW 247 8,4 C 8,6 C
24.02.2012 01:57 9,6 C 92 % 1017,8 hPa 0,0 l/m 9,7 km/h (2 Bft) SW 225 8,4 C 8,2 C
24.02.2012 02:02 9,6 C 92 % 1017,8 hPa 0,0 l/m 15,5 km/h (3 Bft) W-SW 247 8,4 C 7,4 C
24.02.2012 02:07 9,6 C 92 % 1017,8 hPa 0,0 l/m 10,1 km/h (2 Bft) W-SW 247 8,4 C 8,1 C
24.02.2012 02:12 9,7 C 92 % 1017,6 hPa 0,0 l/m 6,8 km/h (2 Bft) W-SW 247 8,5 C 8,9 C
24.02.2012 02:17 9,7 C 92 % 1017,6 hPa 0,0 l/m 15,1 km/h (3 Bft) W 270 8,5 C 7,5 C
24.02.2012 02:22 9,8 C 92 % 1017,6 hPa 0,0 l/m 14,4 km/h (3 Bft) SW 225 8,6 C 7,7 C
24.02.2012 02:27 9,8 C 92 % 1017,6 hPa 0,0 l/m 9,7 km/h (2 Bft) W-SW 247 8,6 C 8,4 C
24.02.2012 02:32 9,8 C 92 % 1017,5 hPa 0,0 l/m 12,2 km/h (2 Bft) W-SW 247 8,6 C 8,0 C
24.02.2012 02:37 9,8 C 92 % 1017,4 hPa 0,0 l/m 10,4 km/h (2 Bft) W 270 8,6 C 8,3 C
24.02.2012 02:42 9,8 C 92 % 1017,3 hPa 0,0 l/m 14,8 km/h (3 Bft) W-NW 292 8,6 C 7,7 C
24.02.2012 02:47 9,9 C 92 % 1017,3 hPa 0,0 l/m 13,0 km/h (3 Bft) W 270 8,7 C 8,1 C
24.02.2012 02:52 9,9 C 92 % 1017,2 hPa 0,0 l/m 19,4 km/h (3 Bft) W-NW 292 8,7 C 7,3 C
24.02.2012 02:57 9,9 C 92 % 1017,2 hPa 0,0 l/m 10,4 km/h (2 Bft) W 270 8,7 C 8,4 C
24.02.2012 03:02 9,9 C 92 % 1017,2 hPa 0,0 l/m 12,6 km/h (3 Bft) NW 315 8,7 C 8,1 C
24.02.2012 03:07 9,9 C 92 % 1017,2 hPa 0,0 l/m 15,1 km/h (3 Bft) SW 225 8,7 C 7,8 C
24.02.2012 03:12 9,9 C 92 % 1016,8 hPa 0,0 l/m 18,7 km/h (3 Bft) W 270 8,7 C 7,4 C
24.02.2012 03:17 10,0 C 92 % 1016,9 hPa 0,0 l/m 10,1 km/h (2 Bft) W-SW 247 8,8 C 8,6 C
24.02.2012 03:22 10,1 C 92 % 1016,8 hPa 0,0 l/m 12,6 km/h (3 Bft) W-NW 292 8,9 C 10,1 C
24.02.2012 03:27 10,1 C 93 % 1016,9 hPa 0,0 l/m 15,1 km/h (3 Bft) W 270 9,0 C 10,1 C
24.02.2012 03:32 10,1 C 93 % 1016,9 hPa 0,0 l/m 14,4 km/h (3 Bft) W-NW 292 9,0 C 10,1 C
24.02.2012 03:37 10,2 C 93 % 1016,9 hPa 0,0 l/m 21,2 km/h (4 Bft) W-NW 292 9,1 C 10,2 C
24.02.2012 03:42 10,2 C 93 % 1016,8 hPa 0,0 l/m 11,9 km/h (2 Bft) W 270 9,1 C 10,2 C
24.02.2012 03:47 10,3 C 93 % 1016,7 hPa 0,0 l/m 13,7 km/h (3 Bft) W-SW 247 9,2 C 10,3 C
24.02.2012 03:52 10,3 C 92 % 1016,7 hPa 0,0 l/m 16,2 km/h (3 Bft) W-NW 292 9,1 C 10,3 C
24.02.2012 03:57 10,3 C 92 % 1016,8 hPa 0,0 l/m 20,5 km/h (4 Bft) W 270 9,1 C 10,3 C
24.02.2012 04:02 10,3 C 92 % 1016,7 hPa 0,0 l/m 14,8 km/h (3 Bft) W-SW 247 9,1 C 10,3 C
24.02.2012 04:07 10,3 C 92 % 1016,7 hPa 0,0 l/m 15,5 km/h (3 Bft) W-NW 292 9,1 C 10,3 C
24.02.2012 04:12 10,3 C 92 % 1016,7 hPa 0,0 l/m 16,2 km/h (3 Bft) W 270 9,1 C 10,3 C
24.02.2012 04:17 10,3 C 92 % 1016,7 hPa 0,0 l/m 5,8 km/h (2 Bft) W-SW 247 9,1 C 10,3 C
24.02.2012 04:22 10,3 C 92 % 1016,7 hPa 0,0 l/m 16,2 km/h (3 Bft) SW 225 9,1 C 10,3 C
24.02.2012 04:27 10,4 C 92 % 1016,6 hPa 0,0 l/m 11,9 km/h (2 Bft) W-NW 292 9,2 C 10,4 C
24.02.2012 04:32 10,4 C 92 % 1016,6 hPa 0,0 l/m 7,2 km/h (2 Bft) W 270 9,2 C 10,4 C
24.02.2012 04:37 10,4 C 92 % 1016,6 hPa 0,0 l/m 17,6 km/h (3 Bft) W-SW 247 9,2 C 10,4 C
24.02.2012 04:42 10,4 C 92 % 1016,4 hPa 0,0 l/m 14,0 km/h (3 Bft) W-NW 292 9,2 C 10,4 C
24.02.2012 04:47 10,4 C 92 % 1016,6 hPa 0,5 l/m 20,5 km/h (4 Bft) W-SW 247 9,2 C 10,4 C
24.02.2012 04:52 10,4 C 92 % 1016,6 hPa 0,0 l/m 15,5 km/h (3 Bft) W 270 9,2 C 10,4 C
24.02.2012 04:57 10,4 C 92 % 1016,4 hPa 0,0 l/m 11,2 km/h (2 Bft) W 270 9,2 C 10,4 C
24.02.2012 05:02 10,4 C 92 % 1016,4 hPa 0,0 l/m 12,6 km/h (3 Bft) W 270 9,2 C 10,4 C
24.02.2012 05:07 10,4 C 92 % 1016,4 hPa 0,0 l/m 10,8 km/h (2 Bft) W 270 9,2 C 10,4 C
24.02.2012 05:12 10,4 C 92 % 1016,5 hPa 0,0 l/m 8,3 km/h (2 Bft) NW 315 9,2 C 10,4 C
24.02.2012 05:17 10,4 C 92 % 1016,4 hPa 0,0 l/m 14,4 km/h (3 Bft) W-SW 247 9,2 C 10,4 C
24.02.2012 05:22 10,5 C 92 % 1016,3 hPa 0,0 l/m 12,2 km/h (2 Bft) W-SW 247 9,3 C 10,5 C
24.02.2012 05:27 10,4 C 92 % 1016,4 hPa 0,0 l/m 19,8 km/h (3 Bft) W 270 9,2 C 10,4 C
24.02.2012 05:32 10,4 C 92 % 1016,4 hPa 0,0 l/m 17,3 km/h (3 Bft) W 270 9,2 C 10,4 C
24.02.2012 05:37 10,4 C 92 % 1016,4 hPa 0,0 l/m 14,0 km/h (3 Bft) O-SO 112 9,2 C 10,4 C
24.02.2012 05:42 10,4 C 92 % 1016,4 hPa 0,0 l/m 11,9 km/h (2 Bft) W-NW 292 9,2 C 10,4 C
24.02.2012 05:47 10,4 C 92 % 1016,4 hPa 0,0 l/m 17,6 km/h (3 Bft) W-NW 292 9,2 C 10,4 C
24.02.2012 05:52 10,4 C 92 % 1016,5 hPa 0,0 l/m 15,8 km/h (3 Bft) W 270 9,2 C 10,4 C
24.02.2012 05:57 10,4 C 92 % 1016,6 hPa 0,0 l/m 18,7 km/h (3 Bft) NW 315 9,2 C 10,4 C
24.02.2012 06:02 10,4 C 92 % 1016,7 hPa 0,0 l/m 8,6 km/h (2 Bft) W-NW 292 9,2 C 10,4 C
24.02.2012 06:07 10,4 C 92 % 1016,6 hPa 0,0 l/m 14,4 km/h (3 Bft) W 270 9,2 C 10,4 C
24.02.2012 06:12 10,4 C 92 % 1016,7 hPa 0,0 l/m 7,6 km/h (2 Bft) W 270 9,2 C 10,4 C
24.02.2012 06:17 10,4 C 92 % 1016,5 hPa 0,0 l/m 12,6 km/h (3 Bft) W 270 9,2 C 10,4 C
24.02.2012 06:22 10,4 C 92 % 1016,5 hPa 0,0 l/m 13,7 km/h (3 Bft) W 270 9,2 C 10,4 C
24.02.2012 06:27 10,4 C 92 % 1016,6 hPa 0,0 l/m 5,4 km/h (1 Bft) W 270 9,2 C 10,4 C
24.02.2012 06:32 10,4 C 93 % 1016,6 hPa 0,0 l/m 9,7 km/h (2 Bft) W 270 9,3 C 10,4 C
24.02.2012 06:37 10,4 C 93 % 1016,5 hPa 0,0 l/m 5,8 km/h (2 Bft) W 270 9,3 C 10,4 C
24.02.2012 06:42 10,4 C 93 % 1016,4 hPa 0,0 l/m 14,0 km/h (3 Bft) W-SW 247 9,3 C 10,4 C
24.02.2012 06:47 10,3 C 93 % 1016,5 hPa 0,0 l/m 12,2 km/h (2 Bft) W-NW 292 9,2 C 10,3 C
24.02.2012 06:52 10,3 C 93 % 1016,7 hPa 0,0 l/m 16,9 km/h (3 Bft) W 270 9,2 C 10,3 C
24.02.2012 06:57 10,3 C 93 % 1016,6 hPa 0,0 l/m 6,5 km/h (2 Bft) W-NW 292 9,2 C 10,3 C
24.02.2012 07:02 10,3 C 93 % 1016,8 hPa 0,0 l/m 18,4 km/h (3 Bft) W-NW 292 9,2 C 10,3 C
24.02.2012 07:07 10,3 C 93 % 1016,8 hPa 0,0 l/m 14,4 km/h (3 Bft) SW 225 9,2 C 10,3 C
24.02.2012 07:12 10,3 C 93 % 1016,7 hPa 0,0 l/m 11,9 km/h (2 Bft) W-SW 247 9,2 C 10,3 C
24.02.2012 07:17 10,3 C 93 % 1016,9 hPa 0,0 l/m 10,1 km/h (2 Bft) W 270 9,2 C 10,3 C
24.02.2012 07:22 10,3 C 93 % 1016,9 hPa 0,0 l/m 6,1 km/h (2 Bft) W 270 9,2 C 10,3 C
24.02.2012 07:27 10,3 C 93 % 1017,0 hPa 0,0 l/m 10,8 km/h (2 Bft) W 270 9,2 C 10,3 C
24.02.2012 07:32 10,3 C 93 % 1016,8 hPa 0,0 l/m 13,7 km/h (3 Bft) W 270 9,2 C 10,3 C
24.02.2012 07:37 10,2 C 93 % 1017,0 hPa 0,0 l/m 7,2 km/h (2 Bft) W-SW 247 9,1 C 10,2 C
24.02.2012 07:42 10,2 C 93 % 1017,1 hPa 0,0 l/m 15,8 km/h (3 Bft) W-NW 292 9,1 C 10,2 C
24.02.2012 07:47 10,2 C 93 % 1017,3 hPa 0,0 l/m 17,6 km/h (3 Bft) W-NW 292 9,1 C 10,2 C
24.02.2012 07:52 10,2 C 93 % 1017,1 hPa 0,0 l/m 12,6 km/h (3 Bft) W 270 9,1 C 10,2 C
24.02.2012 07:57 10,2 C 93 % 1017,1 hPa 0,0 l/m 9,0 km/h (2 Bft) W 270 9,1 C 10,2 C
24.02.2012 08:02 10,2 C 93 % 1017,2 hPa 0,0 l/m 6,8 km/h (2 Bft) NW 315 9,1 C 10,2 C
24.02.2012 08:07 10,2 C 93 % 1017,3 hPa 0,0 l/m 15,5 km/h (3 Bft) W-NW 292 9,1 C 10,2 C
24.02.2012 08:12 10,2 C 93 % 1017,2 hPa 0,0 l/m 9,7 km/h (2 Bft) W-NW 292 9,1 C 10,2 C
24.02.2012 08:17 10,2 C 93 % 1017,2 hPa 0,0 l/m 12,6 km/h (3 Bft) W-SW 247 9,1 C 10,2 C
24.02.2012 08:22 10,3 C 93 % 1017,3 hPa 0,0 l/m 5,8 km/h (2 Bft) W 270 9,2 C 10,3 C
24.02.2012 08:27 10,3 C 93 % 1017,5 hPa 0,0 l/m 13,7 km/h (3 Bft) W-SW 247 9,2 C 10,3 C
24.02.2012 08:32 10,3 C 92 % 1017,4 hPa 0,5 l/m 7,6 km/h (2 Bft) W-SW 247 9,1 C 10,3 C
24.02.2012 08:37 10,3 C 92 % 1017,3 hPa 0,0 l/m 10,4 km/h (2 Bft) W 270 9,1 C 10,3 C
24.02.2012 08:42 10,3 C 92 % 1017,5 hPa 0,0 l/m 15,1 km/h (3 Bft) W 270 9,1 C 10,3 C
24.02.2012 08:47 10,2 C 92 % 1017,4 hPa 0,0 l/m 25,9 km/h (4 Bft) W 270 9,0 C 10,2 C
24.02.2012 08:52 10,3 C 92 % 1017,4 hPa 0,0 l/m 9,0 km/h (2 Bft) NW 315 9,1 C 10,3 C
24.02.2012 08:57 10,2 C 92 % 1017,3 hPa 0,0 l/m 6,5 km/h (2 Bft) W 270 9,0 C 10,2 C
24.02.2012 09:02 10,2 C 92 % 1017,2 hPa 0,0 l/m 6,5 km/h (2 Bft) W-NW 292 9,0 C 10,2 C
24.02.2012 09:07 10,2 C 92 % 1017,4 hPa 0,0 l/m 14,0 km/h (3 Bft) W-SW 247 9,0 C 10,2 C
24.02.2012 09:12 10,2 C 92 % 1017,3 hPa 0,0 l/m 8,6 km/h (2 Bft) W-SW 247 9,0 C 10,2 C
24.02.2012 09:17 10,2 C 92 % 1017,4 hPa 0,0 l/m 9,0 km/h (2 Bft) W-NW 292 9,0 C 10,2 C
24.02.2012 09:22 10,2 C 92 % 1017,4 hPa 0,0 l/m 17,6 km/h (3 Bft) W 270 9,0 C 10,2 C
24.02.2012 09:27 10,2 C 92 % 1017,5 hPa 0,0 l/m 20,5 km/h (4 Bft) W-SW 247 9,0 C 10,2 C
24.02.2012 09:32 10,2 C 92 % 1017,3 hPa 0,0 l/m 18,0 km/h (3 Bft) W-NW 292 9,0 C 10,2 C
24.02.2012 09:37 10,3 C 92 % 1017,3 hPa 0,0 l/m 13,7 km/h (3 Bft) W 270 9,1 C 10,3 C
24.02.2012 09:42 10,3 C 92 % 1017,4 hPa 0,0 l/m 7,6 km/h (2 Bft) W-SW 247 9,1 C 10,3 C
24.02.2012 09:47 10,3 C 92 % 1017,4 hPa 0,0 l/m 16,9 km/h (3 Bft) W-NW 292 9,1 C 10,3 C
24.02.2012 09:52 10,3 C 92 % 1017,5 hPa 0,0 l/m 13,0 km/h (3 Bft) W 270 9,1 C 10,3 C
24.02.2012 09:57 10,3 C 92 % 1017,4 hPa 0,0 l/m 13,0 km/h (3 Bft) W-SW 247 9,1 C 10,3 C
24.02.2012 10:02 10,3 C 92 % 1017,6 hPa 0,0 l/m 9,4 km/h (2 Bft) W 270 9,1 C 10,3 C
24.02.2012 10:07 10,4 C 91 % 1017,4 hPa 0,0 l/m 16,6 km/h (3 Bft) W 270 9,0 C 10,4 C
24.02.2012 10:12 10,4 C 91 % 1017,4 hPa 0,0 l/m 16,6 km/h (3 Bft) W 270 9,0 C 10,4 C
24.02.2012 10:17 10,4 C 91 % 1017,5 hPa 0,0 l/m 15,1 km/h (3 Bft) W 270 9,0 C 10,4 C
24.02.2012 10:22 10,5 C 91 % 1017,6 hPa 0,0 l/m 19,8 km/h (3 Bft) W-SW 247 9,1 C 10,5 C
24.02.2012 10:27 10,5 C 91 % 1017,5 hPa 0,0 l/m 26,6 km/h (4 Bft) NW 315 9,1 C 10,5 C
24.02.2012 10:32 10,5 C 91 % 1017,6 hPa 0,0 l/m 25,2 km/h (4 Bft) W 270 9,1 C 10,5 C
24.02.2012 10:37 10,5 C 91 % 1017,6 hPa 0,0 l/m 8,3 km/h (2 Bft) W 270 9,1 C 10,5 C
24.02.2012 10:42 10,5 C 90 % 1017,6 hPa 0,0 l/m 23,0 km/h (4 Bft) W 270 8,9 C 10,5 C
24.02.2012 10:47 10,5 C 90 % 1017,5 hPa 0,0 l/m 15,8 km/h (3 Bft) W-SW 247 8,9 C 10,5 C
24.02.2012 10:52 10,6 C 90 % 1017,3 hPa 0,0 l/m 22,7 km/h (4 Bft) W-SW 247 9,0 C 10,6 C
24.02.2012 10:57 10,7 C 90 % 1017,3 hPa 0,0 l/m 10,8 km/h (2 Bft) W 270 9,1 C 10,7 C
24.02.2012 11:02 10,8 C 90 % 1017,5 hPa 0,0 l/m 14,8 km/h (3 Bft) S-SW 202 9,2 C 10,8 C
24.02.2012 11:07 10,8 C 89 % 1017,6 hPa 0,0 l/m 28,4 km/h (4 Bft) W-NW 292 9,1 C 10,8 C
24.02.2012 11:12 10,8 C 89 % 1017,7 hPa 0,0 l/m 21,2 km/h (4 Bft) S-SW 202 9,1 C 10,8 C
24.02.2012 11:17 10,8 C 88 % 1017,6 hPa 0,0 l/m 11,5 km/h (2 Bft) W-NW 292 8,9 C 10,8 C
24.02.2012 11:22 10,9 C 88 % 1017,5 hPa 0,0 l/m 5,8 km/h (2 Bft) W-SW 247 9,0 C 10,9 C
24.02.2012 11:27 10,8 C 88 % 1017,5 hPa 0,0 l/m 15,8 km/h (3 Bft) W-SW 247 8,9 C 10,8 C
24.02.2012 11:32 10,9 C 88 % 1017,6 hPa 0,0 l/m 18,0 km/h (3 Bft) NW 315 9,0 C 10,9 C
24.02.2012 11:37 10,9 C 88 % 1017,7 hPa 0,0 l/m 18,0 km/h (3 Bft) SW 225 9,0 C 10,9 C
24.02.2012 11:42 10,9 C 87 % 1017,6 hPa 0,0 l/m 14,4 km/h (3 Bft) W-SW 247 8,8 C 10,9 C
24.02.2012 11:47 10,9 C 87 % 1017,6 hPa 0,0 l/m 10,1 km/h (2 Bft) W 270 8,8 C 10,9 C
24.02.2012 11:52 10,9 C 87 % 1017,7 hPa 0,0 l/m 18,0 km/h (3 Bft) W-SW 247 8,8 C 10,9 C
24.02.2012 11:57 10,9 C 86 % 1017,6 hPa 0,0 l/m 18,0 km/h (3 Bft) W 270 8,7 C 10,9 C
24.02.2012 12:02 10,9 C 86 % 1017,5 hPa 0,0 l/m 17,3 km/h (3 Bft) W-SW 247 8,7 C 10,9 C
24.02.2012 12:07 11,0 C 86 % 1017,6 hPa 0,0 l/m 22,3 km/h (4 Bft) W-NW 292 8,7 C 11,0 C
24.02.2012 12:12 11,1 C 86 % 1017,6 hPa 0,0 l/m 23,0 km/h (4 Bft) NW 315 8,8 C 11,1 C
24.02.2012 12:17 11,1 C 86 % 1017,5 hPa 0,0 l/m 23,8 km/h (4 Bft) W-NW 292 8,8 C 11,1 C
24.02.2012 12:22 11,1 C 85 % 1017,6 hPa 0,0 l/m 20,2 km/h (4 Bft) W-NW 292 8,7 C 11,1 C
24.02.2012 12:27 11,1 C 85 % 1017,5 hPa 0,0 l/m 11,9 km/h (2 Bft) W-SW 247 8,7 C 11,1 C
24.02.2012 12:32 11,1 C 85 % 1017,5 hPa 0,0 l/m 15,5 km/h (3 Bft) W 270 8,7 C 11,1 C
24.02.2012 12:37 11,0 C 84 % 1017,6 hPa 0,0 l/m 12,6 km/h (3 Bft) NW 315 8,4 C 11,0 C
24.02.2012 12:42 11,0 C 84 % 1017,6 hPa 0,0 l/m 24,5 km/h (4 Bft) W 270 8,4 C 11,0 C
24.02.2012 12:47 11,1 C 84 % 1017,7 hPa 0,0 l/m 25,6 km/h (4 Bft) NW 315 8,5 C 11,1 C
24.02.2012 12:52 11,2 C 84 % 1017,6 hPa 0,0 l/m 15,8 km/h (3 Bft) W-NW 292 8,6 C 11,2 C
24.02.2012 12:57 11,2 C 84 % 1017,5 hPa 0,0 l/m 21,6 km/h (4 Bft) W-NW 292 8,6 C 11,2 C
24.02.2012 13:02 11,3 C 83 % 1017,4 hPa 0,0 l/m 16,9 km/h (3 Bft) W 270 8,5 C 11,3 C
24.02.2012 13:07 11,4 C 83 % 1017,4 hPa 0,0 l/m 13,7 km/h (3 Bft) W-NW 292 8,6 C 11,4 C
24.02.2012 13:12 11,5 C 82 % 1017,3 hPa 0,0 l/m 27,7 km/h (4 Bft) NW 315 8,5 C 11,5 C
24.02.2012 13:17 11,6 C 81 % 1017,2 hPa 0,0 l/m 27,4 km/h (4 Bft) W-NW 292 8,5 C 11,6 C
24.02.2012 13:22 11,8 C 80 % 1017,2 hPa 0,0 l/m 17,6 km/h (3 Bft) NW 315 8,5 C 11,8 C
24.02.2012 13:27 11,9 C 80 % 1017,0 hPa 0,0 l/m 28,8 km/h (4 Bft) W 270 8,6 C 11,9 C
24.02.2012 13:32 11,8 C 80 % 1017,2 hPa 0,0 l/m 11,2 km/h (2 Bft) W 270 8,5 C 11,8 C
24.02.2012 13:37 11,8 C 80 % 1017,2 hPa 0,0 l/m 14,8 km/h (3 Bft) W 270 8,5 C 11,8 C
24.02.2012 13:42 11,9 C 79 % 1017,2 hPa 0,0 l/m 28,1 km/h (4 Bft) W 270 8,4 C 11,9 C
24.02.2012 13:47 11,9 C 79 % 1017,1 hPa 0,0 l/m 27,4 km/h (4 Bft) W-NW 292 8,4 C 11,9 C
24.02.2012 13:52 11,9 C 79 % 1017,1 hPa 0,0 l/m 14,4 km/h (3 Bft) W 270 8,4 C 11,9 C
24.02.2012 13:57 11,9 C 80 % 1017,0 hPa 0,0 l/m 20,5 km/h (4 Bft) W 270 8,6 C 11,9 C
24.02.2012 14:02 11,8 C 80 % 1017,2 hPa 0,0 l/m 8,3 km/h (2 Bft) W 270 8,5 C 11,8 C
24.02.2012 14:07 11,7 C 81 % 1017,2 hPa 0,0 l/m 20,9 km/h (4 Bft) W 270 8,5 C 11,7 C
24.02.2012 14:12 11,5 C 82 % 1017,1 hPa 0,0 l/m 13,3 km/h (3 Bft) W 270 8,5 C 11,5 C
24.02.2012 14:17 11,4 C 82 % 1017,1 hPa 0,0 l/m 16,9 km/h (3 Bft) W-NW 292 8,4 C 11,4 C
24.02.2012 14:22 11,2 C 83 % 1017,2 hPa 0,0 l/m 20,9 km/h (4 Bft) W-NW 292 8,4 C 11,2 C
24.02.2012 14:27 11,0 C 84 % 1017,2 hPa 0,0 l/m 26,3 km/h (4 Bft) W-NW 292 8,4 C 11,0 C
24.02.2012 14:32 10,9 C 85 % 1017,3 hPa 0,0 l/m 10,8 km/h (2 Bft) W 270 8,5 C 10,9 C
24.02.2012 14:37 10,8 C 86 % 1017,3 hPa 0,0 l/m 18,4 km/h (3 Bft) W 270 8,6 C 10,8 C
24.02.2012 14:42 10,7 C 86 % 1017,3 hPa 0,0 l/m 17,6 km/h (3 Bft) NW 315 8,5 C 10,7 C
24.02.2012 14:47 10,6 C 87 % 1017,1 hPa 0,0 l/m 12,2 km/h (2 Bft) W-NW 292 8,5 C 10,6 C
24.02.2012 14:52 10,5 C 87 % 1017,2 hPa 0,0 l/m 19,1 km/h (3 Bft) W 270 8,4 C 10,5 C
24.02.2012 14:57 10,4 C 87 % 1017,2 hPa 0,0 l/m 27,4 km/h (4 Bft) W 270 8,3 C 10,4 C
24.02.2012 15:02 10,6 C 87 % 1017,0 hPa 0,0 l/m 9,7 km/h (2 Bft) W-NW 292 8,5 C 10,6 C
24.02.2012 15:07 10,9 C 87 % 1016,9 hPa 0,0 l/m 27,4 km/h (4 Bft) W-NW 292 8,8 C 10,9 C
24.02.2012 15:12 11,1 C 86 % 1016,9 hPa 0,0 l/m 16,2 km/h (3 Bft) NW 315 8,8 C 11,1 C
24.02.2012 15:17 11,3 C 85 % 1017,1 hPa 0,0 l/m 11,5 km/h (2 Bft) W-SW 247 8,9 C 11,3 C
24.02.2012 15:22 11,4 C 84 % 1017,0 hPa 0,0 l/m 7,2 km/h (2 Bft) N-NW 337 8,8 C 11,4 C
24.02.2012 15:27 11,5 C 83 % 1016,9 hPa 0,0 l/m 13,3 km/h (3 Bft) N-NW 337 8,7 C 11,5 C
24.02.2012 15:32 11,4 C 83 % 1016,9 hPa 0,0 l/m 17,3 km/h (3 Bft) W 270 8,6 C 11,4 C
24.02.2012 15:37 11,3 C 83 % 1016,9 hPa 0,0 l/m 16,2 km/h (3 Bft) W-SW 247 8,5 C 11,3 C
24.02.2012 15:42 11,2 C 83 % 1016,8 hPa 0,0 l/m 13,0 km/h (3 Bft) W-SW 247 8,4 C 11,2 C
24.02.2012 15:47 11,1 C 84 % 1016,8 hPa 0,0 l/m 11,2 km/h (2 Bft) W 270 8,5 C 11,1 C
24.02.2012 15:52 11,1 C 84 % 1016,7 hPa 0,0 l/m 11,2 km/h (2 Bft) W-NW 292 8,5 C 11,1 C
24.02.2012 15:57 11,0 C 84 % 1016,7 hPa 0,0 l/m 8,6 km/h (2 Bft) W 270 8,4 C 11,0 C
24.02.2012 16:02 10,9 C 84 % 1016,8 hPa 0,0 l/m 14,8 km/h (3 Bft) SW 225 8,3 C 10,9 C
24.02.2012 16:07 10,9 C 85 % 1016,6 hPa 0,0 l/m 7,6 km/h (2 Bft) W 270 8,5 C 10,9 C
24.02.2012 16:12 10,8 C 86 % 1016,7 hPa 0,0 l/m 7,6 km/h (2 Bft) W-SW 247 8,6 C 10,8 C
24.02.2012 16:17 10,6 C 86 % 1016,5 hPa 0,0 l/m 18,0 km/h (3 Bft) W-NW 292 8,4 C 10,6 C
24.02.2012 16:22 10,5 C 87 % 1016,5 hPa 0,0 l/m 11,2 km/h (2 Bft) W-SW 247 8,4 C 10,5 C
24.02.2012 16:27 10,5 C 88 % 1016,4 hPa 0,0 l/m 18,4 km/h (3 Bft) W 270 8,6 C 10,5 C
24.02.2012 16:32 10,4 C 88 % 1016,4 hPa 0,0 l/m 30,2 km/h (5 Bft) W-SW 247 8,5 C 10,4 C
24.02.2012 16:37 10,4 C 88 % 1016,3 hPa 0,0 l/m 13,3 km/h (3 Bft) W-SW 247 8,5 C 10,4 C
24.02.2012 16:42 10,3 C 89 % 1016,3 hPa 0,0 l/m 12,2 km/h (2 Bft) W-NW 292 8,6 C 10,3 C
24.02.2012 16:47 10,3 C 89 % 1016,2 hPa 0,0 l/m 9,0 km/h (2 Bft) SW 225 8,6 C 10,3 C
24.02.2012 16:52 10,3 C 89 % 1016,2 hPa 0,0 l/m 9,7 km/h (2 Bft) W-NW 292 8,6 C 10,3 C
24.02.2012 16:57 10,2 C 90 % 1016,2 hPa 0,0 l/m 13,7 km/h (3 Bft) W 270 8,6 C 10,2 C
24.02.2012 17:02 10,2 C 90 % 1016,1 hPa 0,0 l/m 5,0 km/h (1 Bft) W-SW 247 8,6 C 10,2 C
24.02.2012 17:07 10,2 C 90 % 1016,1 hPa 0,0 l/m 18,7 km/h (3 Bft) W 270 8,6 C 10,2 C
24.02.2012 17:12 10,2 C 90 % 1016,1 hPa 0,5 l/m 18,4 km/h (3 Bft) W-SW 247 8,6 C 10,2 C
24.02.2012 17:17 10,2 C 90 % 1016,1 hPa 0,0 l/m 10,1 km/h (2 Bft) NW 315 8,6 C 10,2 C
24.02.2012 17:22 10,2 C 90 % 1016,3 hPa 0,0 l/m 8,6 km/h (2 Bft) W 270 8,6 C 10,2 C
24.02.2012 17:27 10,1 C 90 % 1016,2 hPa 0,0 l/m 16,6 km/h (3 Bft) W 270 8,5 C 10,1 C
24.02.2012 17:32 10,1 C 90 % 1016,2 hPa 0,0 l/m 6,5 km/h (2 Bft) W-SW 247 8,5 C 10,1 C
24.02.2012 17:37 10,1 C 90 % 1016,3 hPa 0,0 l/m 13,0 km/h (3 Bft) W 270 8,5 C 10,1 C
24.02.2012 17:42 10,1 C 90 % 1016,2 hPa 0,0 l/m 11,9 km/h (2 Bft) W-NW 292 8,5 C 10,1 C
24.02.2012 17:47 10,1 C 90 % 1016,3 hPa 0,0 l/m 7,2 km/h (2 Bft) W-NW 292 8,5 C 10,1 C
24.02.2012 17:52 10,1 C 91 % 1016,3 hPa 0,0 l/m 11,5 km/h (2 Bft) W-NW 292 8,7 C 10,1 C
24.02.2012 17:57 10,1 C 91 % 1016,4 hPa 0,5 l/m 15,8 km/h (3 Bft) W-NW 292 8,7 C 10,1 C
24.02.2012 18:02 9,9 C 91 % 1016,4 hPa 0,0 l/m 14,0 km/h (3 Bft) W 270 8,5 C 7,9 C
24.02.2012 18:07 9,9 C 91 % 1016,4 hPa 0,0 l/m 24,1 km/h (4 Bft) W 270 8,5 C 6,9 C
24.02.2012 18:12 9,9 C 91 % 1016,3 hPa 0,0 l/m 10,1 km/h (2 Bft) W-NW 292 8,5 C 8,5 C
24.02.2012 18:17 9,9 C 91 % 1016,4 hPa 0,0 l/m 14,8 km/h (3 Bft) N-NW 337 8,5 C 7,8 C
24.02.2012 18:22 9,9 C 91 % 1016,7 hPa 0,0 l/m 4,0 km/h (1 Bft) W-NW 292 8,5 C 9,9 C
24.02.2012 18:27 9,9 C 91 % 1016,7 hPa 0,5 l/m 16,6 km/h (3 Bft) NO 45 8,5 C 7,6 C
24.02.2012 18:32 9,6 C 91 % 1016,8 hPa 0,0 l/m 10,8 km/h (2 Bft) NO 45 8,2 C 8,0 C
24.02.2012 18:37 9,5 C 90 % 1016,8 hPa 0,0 l/m 21,2 km/h (4 Bft) N-NW 337 7,9 C 6,6 C
24.02.2012 18:42 9,4 C 90 % 1017,0 hPa 0,0 l/m 18,4 km/h (3 Bft) NW 315 7,8 C 6,8 C
24.02.2012 18:47 9,3 C 90 % 1017,0 hPa 0,5 l/m 12,2 km/h (2 Bft) N-NW 337 7,7 C 7,4 C
24.02.2012 18:52 9,1 C 90 % 1017,0 hPa 0,0 l/m 11,5 km/h (2 Bft) N-NW 337 7,5 C 7,3 C
24.02.2012 18:57 9,0 C 90 % 1016,9 hPa 0,0 l/m 10,4 km/h (2 Bft) NW 315 7,4 C 7,4 C
24.02.2012 19:02 8,9 C 90 % 1016,9 hPa 0,0 l/m 10,1 km/h (2 Bft) NW 315 7,4 C 7,3 C
24.02.2012 19:07 8,9 C 90 % 1017,2 hPa 0,0 l/m 19,1 km/h (3 Bft) N-NO 22 7,4 C 6,1 C
24.02.2012 19:12 8,9 C 90 % 1017,1 hPa 0,0 l/m 11,9 km/h (2 Bft) W 270 7,4 C 7,0 C
24.02.2012 19:17 8,9 C 90 % 1017,1 hPa 0,0 l/m 13,3 km/h (3 Bft) W 270 7,4 C 6,8 C
24.02.2012 19:22 8,9 C 90 % 1017,1 hPa 0,0 l/m 15,1 km/h (3 Bft) W 270 7,4 C 6,5 C
24.02.2012 19:27 8,9 C 90 % 1016,9 hPa 0,0 l/m 11,9 km/h (2 Bft) N-NW 337 7,4 C 7,0 C
24.02.2012 19:32 8,9 C 89 % 1017,0 hPa 0,0 l/m 24,5 km/h (4 Bft) W-NW 292 7,2 C 5,6 C
24.02.2012 19:37 8,9 C 89 % 1016,9 hPa 0,0 l/m 24,1 km/h (4 Bft) NW 315 7,2 C 5,6 C
24.02.2012 19:42 8,9 C 88 % 1017,2 hPa 0,0 l/m 28,8 km/h (4 Bft) NW 315 7,0 C 5,2 C
24.02.2012 19:47 8,9 C 88 % 1017,4 hPa 0,0 l/m 25,6 km/h (4 Bft) W 270 7,0 C 5,5 C
24.02.2012 19:52 8,9 C 87 % 1017,5 hPa 0,0 l/m 19,1 km/h (3 Bft) W-NW 292 6,9 C 6,1 C
24.02.2012 19:57 8,9 C 87 % 1017,5 hPa 0,0 l/m 17,6 km/h (3 Bft) W-NW 292 6,9 C 6,2 C
24.02.2012 20:02 8,8 C 87 % 1017,6 hPa 0,0 l/m 24,8 km/h (4 Bft) W-NW 292 6,8 C 5,4 C
24.02.2012 20:07 8,8 C 87 % 1017,5 hPa 0,0 l/m 21,2 km/h (4 Bft) NW 315 6,8 C 5,7 C
24.02.2012 20:12 8,7 C 86 % 1017,4 hPa 0,0 l/m 19,4 km/h (3 Bft) W 270 6,5 C 5,8 C
24.02.2012 20:17 8,6 C 86 % 1017,5 hPa 0,0 l/m 22,0 km/h (4 Bft) W-SW 247 6,4 C 5,4 C
24.02.2012 20:22 8,6 C 86 % 1017,6 hPa 0,0 l/m 17,3 km/h (3 Bft) W 270 6,4 C 5,9 C
24.02.2012 20:27 8,5 C 86 % 1017,6 hPa 0,0 l/m 18,4 km/h (3 Bft) N-NW 337 6,3 C 5,7 C
24.02.2012 20:32 8,4 C 86 % 1017,4 hPa 0,0 l/m 13,7 km/h (3 Bft) W-NW 292 6,2 C 6,1 C
24.02.2012 20:37 8,3 C 86 % 1017,8 hPa 0,0 l/m 28,1 km/h (4 Bft) W-NW 292 6,1 C 4,5 C
24.02.2012 20:42 8,2 C 86 % 1017,8 hPa 0,0 l/m 19,4 km/h (3 Bft) W-NW 292 6,0 C 5,2 C
24.02.2012 20:47 8,1 C 86 % 1017,9 hPa 0,0 l/m 14,4 km/h (3 Bft) N-NW 337 5,9 C 5,7 C
24.02.2012 20:52 8,1 C 86 % 1017,9 hPa 0,0 l/m 14,0 km/h (3 Bft) NW 315 5,9 C 5,7 C
24.02.2012 20:57 7,9 C 86 % 1018,1 hPa 0,0 l/m 18,4 km/h (3 Bft) W 270 5,7 C 4,9 C
24.02.2012 21:02 7,9 C 86 % 1018,2 hPa 0,0 l/m 20,2 km/h (4 Bft) W 270 5,7 C 4,7 C
24.02.2012 21:07 7,9 C 86 % 1018,1 hPa 0,0 l/m 8,3 km/h (2 Bft) SW 225 5,7 C 6,5 C
24.02.2012 21:12 7,9 C 86 % 1018,3 hPa 0,0 l/m 11,5 km/h (2 Bft) W-NW 292 5,7 C 5,9 C
24.02.2012 21:17 7,8 C 86 % 1018,6 hPa 0,0 l/m 7,2 km/h (2 Bft) NW 315 5,6 C 6,6 C
24.02.2012 21:22 7,8 C 86 % 1018,7 hPa 0,0 l/m 15,1 km/h (3 Bft) NW 315 5,6 C 5,2 C
24.02.2012 21:27 7,8 C 86 % 1018,9 hPa 0,0 l/m 10,8 km/h (2 Bft) W 270 5,6 C 5,9 C
24.02.2012 21:32 7,8 C 86 % 1018,9 hPa 0,0 l/m 17,6 km/h (3 Bft) W 270 5,6 C 4,9 C
24.02.2012 21:37 7,8 C 86 % 1019,1 hPa 0,0 l/m 19,4 km/h (3 Bft) W-NW 292 5,6 C 4,7 C
24.02.2012 21:42 7,8 C 86 % 1019,0 hPa 0,0 l/m 18,4 km/h (3 Bft) W 270 5,6 C 4,8 C
24.02.2012 21:47 7,7 C 86 % 1018,9 hPa 0,0 l/m 15,8 km/h (3 Bft) W-SW 247 5,5 C 5,0 C
24.02.2012 21:52 7,6 C 85 % 1018,9 hPa 0,0 l/m 18,7 km/h (3 Bft) W-NW 292 5,2 C 4,5 C
24.02.2012 21:57 7,6 C 85 % 1019,0 hPa 0,0 l/m 15,5 km/h (3 Bft) W-NW 292 5,2 C 4,9 C
24.02.2012 22:02 7,5 C 85 % 1019,3 hPa 0,0 l/m 16,9 km/h (3 Bft) W 270 5,1 C 4,6 C
24.02.2012 22:07 7,4 C 85 % 1019,6 hPa 0,0 l/m 13,3 km/h (3 Bft) W 270 5,0 C 5,0 C
24.02.2012 22:12 7,3 C 85 % 1019,7 hPa 0,0 l/m 15,8 km/h (3 Bft) N-NW 337 4,9 C 4,5 C
24.02.2012 22:17 7,2 C 85 % 1019,7 hPa 0,0 l/m 12,6 km/h (3 Bft) W-NW 292 4,9 C 4,8 C
24.02.2012 22:22 7,2 C 85 % 1019,7 hPa 0,0 l/m 22,7 km/h (4 Bft) W-NW 292 4,9 C 3,6 C
24.02.2012 22:27 7,2 C 84 % 1019,5 hPa 0,0 l/m 34,6 km/h (5 Bft) W-NW 292 4,7 C 2,6 C
24.02.2012 22:32 7,2 C 84 % 1019,7 hPa 0,0 l/m 18,4 km/h (3 Bft) W-NW 292 4,7 C 4,0 C
24.02.2012 22:37 7,2 C 84 % 1019,6 hPa 0,0 l/m 21,2 km/h (4 Bft) NW 315 4,7 C 3,7 C
24.02.2012 22:42 7,1 C 84 % 1019,6 hPa 0,0 l/m 27,4 km/h (4 Bft) NW 315 4,6 C 3,0 C
24.02.2012 22:47 7,1 C 84 % 1019,7 hPa 0,0 l/m 24,1 km/h (4 Bft) NW 315 4,6 C 3,3 C
24.02.2012 22:52 7,0 C 84 % 1019,8 hPa 0,0 l/m 10,8 km/h (2 Bft) NW 315 4,5 C 4,9 C
24.02.2012 22:57 6,9 C 84 % 1019,6 hPa 0,0 l/m 17,3 km/h (3 Bft) W-SW 247 4,4 C 3,8 C
24.02.2012 23:02 6,9 C 83 % 1019,8 hPa 0,0 l/m 24,8 km/h (4 Bft) W-NW 292 4,2 C 3,0 C
24.02.2012 23:07 6,9 C 83 % 1020,0 hPa 0,0 l/m 11,5 km/h (2 Bft) W-NW 292 4,2 C 4,6 C
24.02.2012 23:12 6,8 C 83 % 1019,9 hPa 0,0 l/m 16,9 km/h (3 Bft) NW 315 4,1 C 3,7 C
24.02.2012 23:17 6,7 C 82 % 1019,9 hPa 0,0 l/m 10,8 km/h (2 Bft) W-NW 292 3,8 C 4,5 C
24.02.2012 23:22 6,6 C 82 % 1020,1 hPa 0,0 l/m 14,4 km/h (3 Bft) W 270 3,8 C 3,8 C
24.02.2012 23:27 6,6 C 82 % 1020,1 hPa 0,0 l/m 12,6 km/h (3 Bft) NW 315 3,8 C 4,1 C
24.02.2012 23:32 6,5 C 83 % 1020,3 hPa 0,0 l/m 23,8 km/h (4 Bft) NW 315 3,8 C 2,6 C
24.02.2012 23:37 6,5 C 83 % 1020,2 hPa 0,0 l/m 19,8 km/h (3 Bft) W 270 3,8 C 3,0 C
24.02.2012 23:42 6,4 C 82 % 1020,1 hPa 0,0 l/m 8,3 km/h (2 Bft) W 270 3,6 C 4,7 C
24.02.2012 23:47 6,4 C 82 % 1020,4 hPa 0,0 l/m 19,1 km/h (3 Bft) W-NW 292 3,6 C 2,9 C
24.02.2012 23:52 6,3 C 82 % 1020,3 hPa 0,0 l/m 14,0 km/h (3 Bft) W 270 3,5 C 3,5 C
24.02.2012 23:57 6,3 C 82 % 1020,4 hPa 0,0 l/m 28,8 km/h (4 Bft) W-NW 292 3,5 C 1,8 C
_ Min-Zeit 23:52 13:42 17:02 - 18:22 - - 23:52 23:57
Minimum _ 6,3 C 79 % 1016,1 hPa - 4,0 km/h (1 Bft) - - 3,5 C 1,8 C
_ Max-Zeit 13:27 03:27 23:47 00:02 22:27 - - 06:32 13:27
Maximum _ 11,9 C 93 % 1020,4 hPa 0,5 l/m 34,6 km/h
W-NW (5 Bft)
- - 9,3 C 11,9 C
Durchschnitt _ 9,8 C 89 % 1017,4 hPa #3,6 l/m 15,2 km/h (3 Bft) W - 8,1 C 8,9 C
(c) by David Heller